• In Hungary
  • List of Countries
  • For 7 days
  • Water Temperature
  • Satellite Maps
  • Weather Map
  • News
  • Weather Widgets
  • user-avatar
    Login

    Hourly Weather Novomarevka

    Today, 20 October, Saturday

    Time Temperature Precipitation Wind Pressure Humidity
    00:00 +7°C° 0 mm 5 mps 742 mmHg 44%
    01:00 +7°C° 0 mm 5 mps 742 mmHg 44%
    02:00 +6°C° 0 mm 5 mps 742 mmHg 44%
    03:00 +6°C° 0 mm 5 mps 742 mmHg 45%
    04:00 +6°C° 0 mm 4 mps 742 mmHg 44%
    05:00 +5°C° 0 mm 4 mps 742 mmHg 44%
    06:00 +5°C° 0 mm 4 mps 742 mmHg 45%
    07:00 +5°C° 0 mm 5 mps 742 mmHg 45%
    08:00 +6°C° 0 mm 5 mps 742 mmHg 41%
    09:00 +8°C° 0 mm 6 mps 742 mmHg 36%
    10:00 +10°C° 0 mm 7 mps 742 mmHg 31%
    11:00 +11°C° 0 mm 7 mps 742 mmHg 29%
    12:00 +12°C° 0 mm 7 mps 742 mmHg 26%
    13:00 +14°C° 0 mm 7 mps 741 mmHg 24%
    14:00 +14°C° 0 mm 7 mps 741 mmHg 25%
    15:00 +14°C° 0 mm 7 mps 741 mmHg 26%
    16:00 +14°C° 0 mm 6 mps 740 mmHg 27%
    17:00 +13°C° 0 mm 6 mps 740 mmHg 30%
    18:00 +10°C° 0 mm 5 mps 740 mmHg 34%
    19:00 +9°C° 0 mm 5 mps 740 mmHg 38%
    20:00 +10°C° 0 mm 4 mps 740 mmHg 42%
    21:00 +8°C° 0 mm 4 mps 740 mmHg 46%
    22:00 +8°C° 0 mm 4 mps 740 mmHg 50%
    23:00 +7°C° 0 mm 4 mps 739 mmHg 53%

    Tomorrow, 21 October, Sunday

    Time Temperature Precipitation Wind Pressure Humidity
    00:00 +7°C° 0 mm 4 mps 739 mmHg 57%
    01:00 +7°C° 0 mm 4 mps 739 mmHg 60%
    02:00 +6°C° 0 mm 4 mps 739 mmHg 62%
    03:00 +7°C° 0 mm 3 mps 739 mmHg 64%
    04:00 +7°C° 0 mm 3 mps 740 mmHg 66%
    05:00 +7°C° 0 mm 3 mps 740 mmHg 68%
    06:00 +6°C° 0 mm 2 mps 740 mmHg 71%
    07:00 +6°C° 0 mm 2 mps 740 mmHg 73%
    08:00 +7°C° 0 mm 2 mps 741 mmHg 70%
    09:00 +9°C° 0 mm 2 mps 741 mmHg 67%
    10:00 +10°C° 0 mm 2 mps 741 mmHg 64%
    11:00 +12°C° 0 mm 2 mps 742 mmHg 60%
    12:00 +12°C° 0 mm 2 mps 742 mmHg 55%
    13:00 +13°C° 0 mm 2 mps 742 mmHg 51%
    14:00 +12°C° 0 mm 3 mps 742 mmHg 49%
    15:00 +12°C° 0 mm 3 mps 742 mmHg 48%
    16:00 +12°C° 0 mm 3 mps 742 mmHg 46%
    17:00 +11°C° 0 mm 3 mps 743 mmHg 50%
    18:00 +9°C° 0 mm 3 mps 743 mmHg 54%
    19:00 +8°C° 0 mm 3 mps 743 mmHg 59%
    20:00 +8°C° 0 mm 3 mps 743 mmHg 61%
    21:00 +7°C° 0 mm 3 mps 744 mmHg 64%
    22:00 +5°C° 0 mm 3 mps 744 mmHg 66%
    23:00 +5°C° 0 mm 3 mps 744 mmHg 68%

    Day after tomorrow, 22 October, Monday

    Time Temperature Precipitation Wind Pressure Humidity
    00:00 +4°C° 0 mm 3 mps 744 mmHg 71%
    01:00 +4°C° 0 mm 3 mps 744 mmHg 73%
    02:00 +3°C° 0 mm 3 mps 745 mmHg 75%
    03:00 +3°C° 0 mm 3 mps 745 mmHg 76%
    04:00 +3°C° 0 mm 2 mps 745 mmHg 77%
    05:00 +2°C° 0 mm 3 mps 745 mmHg 77%
    06:00 +2°C° 0 mm 3 mps 745 mmHg 78%
    07:00 +2°C° 0 mm 3 mps 745 mmHg 78%
    08:00 +3°C° 0 mm 3 mps 746 mmHg 72%
    09:00 +4°C° 0 mm 3 mps 746 mmHg 66%
    10:00 +5°C° 0 mm 4 mps 746 mmHg 60%
    11:00 +7°C° 0 mm 3 mps 746 mmHg 55%
    12:00 +7°C° 0 mm 3 mps 746 mmHg 51%
    13:00 +8°C° 0 mm 3 mps 746 mmHg 46%
    14:00 +8°C° 0 mm 3 mps 746 mmHg 45%
    15:00 +8°C° 0 mm 3 mps 746 mmHg 44%
    16:00 +7°C° 0 mm 4 mps 746 mmHg 43%
    17:00 +7°C° 0 mm 3 mps 746 mmHg 46%
    18:00 +5°C° 0 mm 3 mps 747 mmHg 49%
    19:00 +4°C° 0 mm 3 mps 747 mmHg 53%
    20:00 +3°C° 0 mm 3 mps 747 mmHg 54%
    21:00 +3°C° 0 mm 3 mps 747 mmHg 55%
    22:00 +2°C° 0 mm 3 mps 747 mmHg 56%
    23:00 +3°C° 0 mm 2 mps 747 mmHg 57%

    23 October, Tuesday

    Time Temperature Precipitation Wind Pressure Humidity
    00:00 +3°C° 0 mm 2 mps 747 mmHg 58%
    01:00 +2°C° 0 mm 2 mps 747 mmHg 59%
    02:00 +2°C° 0 mm 2 mps 747 mmHg 60%
    03:00 +2°C° 0 mm 2 mps 747 mmHg 62%
    04:00 +2°C° 0 mm 2 mps 747 mmHg 63%
    05:00 +2°C° 0 mm 2 mps 747 mmHg 64%
    06:00 0°C° 0 mm 3 mps 747 mmHg 65%
    07:00 0°C° 0 mm 3 mps 747 mmHg 67%
    08:00 +2°C° 0 mm 3 mps 747 mmHg 61%
    09:00 +4°C° 0 mm 3 mps 747 mmHg 56%
    10:00 +5°C° 0 mm 4 mps 747 mmHg 51%
    11:00 +7°C° 0 mm 4 mps 746 mmHg 48%
    12:00 +8°C° 0 mm 4 mps 746 mmHg 45%
    13:00 +11°C° 0 mm 4 mps 746 mmHg 42%
    14:00 +11°C° 0 mm 4 mps 745 mmHg 43%
    15:00 +11°C° 0 mm 4 mps 745 mmHg 44%
    16:00 +11°C° 0 mm 4 mps 745 mmHg 45%
    17:00 +10°C° 0 mm 4 mps 744 mmHg 50%
    18:00 +8°C° 0 mm 4 mps 744 mmHg 54%
    19:00 +7°C° 0 mm 4 mps 744 mmHg 59%
    20:00 +7°C° 0 mm 4 mps 744 mmHg 60%
    21:00 +7°C° 0 mm 5 mps 744 mmHg 61%
    22:00 +7°C° 0 mm 5 mps 743 mmHg 62%
    23:00 +7°C° 0 mm 6 mps 743 mmHg 62%

    24 October, Wednesday

    Time Temperature Precipitation Wind Pressure Humidity
    00:00 +5°C° 0 mm 6 mps 743 mmHg 62%
    01:00 +5°C° 0 mm 6 mps 743 mmHg 61%
    02:00 +5°C° 0 mm 6 mps 743 mmHg 61%
    03:00 +5°C° 0 mm 6 mps 742 mmHg 61%
    04:00 +4°C° 0 mm 6 mps 742 mmHg 60%
    05:00 +4°C° 0 mm 6 mps 742 mmHg 58%
    06:00 +4°C° 0 mm 6 mps 742 mmHg 55%
    07:00 +4°C° 0 mm 6 mps 742 mmHg 52%
    08:00 +5°C° 0 mm 7 mps 742 mmHg 47%
    09:00 +6°C° 0 mm 7 mps 741 mmHg 43%
    10:00 +7°C° 0 mm 8 mps 741 mmHg 38%
    11:00 +9°C° 0 mm 8 mps 741 mmHg 37%
    12:00 +10°C° 0 mm 8 mps 741 mmHg 36%
    13:00 +11°C° 0 mm 8 mps 740 mmHg 35%
    14:00 +11°C° 0 mm 7 mps 740 mmHg 35%
    15:00 +11°C° 0 mm 7 mps 740 mmHg 36%
    16:00 +13°C° 0 mm 6 mps 739 mmHg 36%
    17:00 +11°C° 0 mm 6 mps 739 mmHg 39%
    18:00 +10°C° 0 mm 6 mps 739 mmHg 42%
    19:00 +9°C° 0 mm 5 mps 740 mmHg 45%
    20:00 +8°C° 0 mm 6 mps 739 mmHg 46%
    21:00 +8°C° 0 mm 6 mps 739 mmHg 47%
    22:00 +8°C° 0 mm 6 mps 739 mmHg 48%
    23:00 +8°C° 0 mm 6 mps 739 mmHg 48%

    25 October, Thursday

    Time Temperature Precipitation Wind Pressure Humidity
    00:00 +8°C° 0 mm 6 mps 739 mmHg 48%
    01:00 +8°C° 0 mm 6 mps 739 mmHg 48%
    02:00 +7°C° 0 mm 6 mps 739 mmHg 50%
    03:00 +5°C° 0 mm 6 mps 739 mmHg 53%
    04:00 +5°C° 0 mm 6 mps 739 mmHg 55%
    05:00 +5°C° 0 mm 6 mps 739 mmHg 55%
    06:00 +4°C° 0 mm 6 mps 739 mmHg 55%
    07:00 +4°C° 0 mm 6 mps 739 mmHg 55%
    08:00 +6°C° 0 mm 7 mps 739 mmHg 50%
    09:00 +8°C° 0 mm 7 mps 739 mmHg 45%
    10:00 +9°C° 0 mm 8 mps 739 mmHg 40%
    11:00 +11°C° 0 mm 8 mps 739 mmHg 37%
    12:00 +12°C° 0 mm 8 mps 738 mmHg 34%
    13:00 +15°C° 0 mm 8 mps 738 mmHg 30%
    14:00 +15°C° 0 mm 8 mps 738 mmHg 30%
    15:00 +15°C° 0 mm 8 mps 737 mmHg 29%
    16:00 +15°C° 0 mm 7 mps 737 mmHg 29%
    17:00 +13°C° 0 mm 8 mps 737 mmHg 30%
    18:00 +11°C° 0 mm 8 mps 737 mmHg 31%
    19:00 +10°C° 0 mm 8 mps 737 mmHg 32%
    20:00 +10°C° 0 mm 8 mps 737 mmHg 34%
    21:00 +9°C° 0 mm 8 mps 736 mmHg 36%
    22:00 +8°C° 0 mm 9 mps 736 mmHg 38%
    23:00 +8°C° 0 mm 9 mps 736 mmHg 38%
    Show more